This is the latest recevied weather packets stored in our database for station/object W8KVG. If no packets are shown the sender has not sent any weather packets the latest 1 day(s).
| Time | Temp. | Humidity | Pressure | Rain* | Wind** | Luminosity | Snow |
|---|---|---|---|---|---|---|---|
| 1778009393 | 21.67° C | 54% | 1007.5 hPa | 0 mm | 0.45 m/s, 260° | 60 W/m² | - |
| 1778009092 | 21.67° C | 56% | 1007.6 hPa | 0 mm | 1.34 m/s, 348° | 64 W/m² | - |
| 1778008789 | 21.67° C | 54% | 1007.5 hPa | 0 mm | 1.34 m/s, 194° | 57 W/m² | - |
| 1778008488 | 21.67° C | 54% | 1007.5 hPa | 0 mm | 0.89 m/s, 190° | 67 W/m² | - |
| 1778008184 | 21.67° C | 54% | 1007.8 hPa | 0 mm | 1.34 m/s, 154° | 95 W/m² | - |
| 1778007879 | 21.67° C | 55% | 1007.5 hPa | 0 mm | 1.79 m/s, 356° | 111 W/m² | - |
| 1778007575 | 21.67° C | 54% | 1007.6 hPa | 0 mm | 0.45 m/s, 72° | 113 W/m² | - |
| 1778007273 | 21.67° C | 54% | 1007.5 hPa | 0 mm | 1.34 m/s, 171° | 74 W/m² | - |
| 1778006969 | 21.67° C | 54% | 1007.5 hPa | 0 mm | 0.89 m/s, 333° | 73 W/m² | - |
| 1778006666 | 22.22° C | 53% | 1007.6 hPa | 0 mm | 1.34 m/s, 0° | 66 W/m² | - |
| 1778006362 | 22.22° C | 52% | 1007.6 hPa | 0 mm | 0.45 m/s, 222° | 103 W/m² | - |
| 1778006059 | 22.78° C | 51% | 1007.6 hPa | 0 mm | 0.89 m/s, 239° | 108 W/m² | - |
| 1778005756 | 23.33° C | 50% | 1007.5 hPa | 0 mm | 0.89 m/s, 155° | 206 W/m² | - |
| 1778005453 | 23.33° C | 51% | 1007.6 hPa | 0 mm | 1.79 m/s, 7° | 856 W/m² | - |
| 1778005149 | 23.33° C | 49% | 1007.6 hPa | 0 mm | 3.58 m/s, 52° | 925 W/m² | - |
| 1778004847 | 23.33° C | 51% | 1007.6 hPa | 0 mm | 0 m/s | 671 W/m² | - |
| 1778004543 | 23.33° C | 51% | 1007.6 hPa | 0 mm | 0.89 m/s, 317° | 828 W/m² | - |
| 1778004240 | 22.78° C | 51% | 1007.7 hPa | 0 mm | 1.34 m/s, 336° | 700 W/m² | - |
| 1778003936 | 23.33° C | 52% | 1007.8 hPa | 0 mm | 0.89 m/s, 322° | 705 W/m² | - |
| 1778003633 | 21.67° C | 52% | 1008 hPa | 0 mm | 1.79 m/s, 186° | 762 W/m² | - |
| 1778003329 | 21.11° C | 55% | 1007.8 hPa | 0 mm | 1.79 m/s, 3° | 396 W/m² | - |
| 1778003027 | 20.56° C | 55% | 1007.7 hPa | 0 mm | 0 m/s | 208 W/m² | - |
| 1778002723 | 20.56° C | 56% | 1007.8 hPa | 0 mm | 0.89 m/s, 339° | 122 W/m² | - |
| 1778002419 | 20.56° C | 56% | 1008 hPa | 0 mm | 2.24 m/s, 335° | 112 W/m² | - |
| 1778002116 | 21.11° C | 57% | 1007.7 hPa | 0 mm | 1.79 m/s, 321° | 90 W/m² | - |
* Rain latest hour (hover to see other rain measurements)
** Current wind speed in m/s (hover to see current wind gust speed)